| time (UTC) | temp F | wind direction | speed knots | gust knots | rain 1hr in | rain 24hr in | rain mn in | humidity % | barometer mb |
| 20260508120735 | 45 | 283 | 7.0 | 10.4 | 0.00 | 0.00 | 0.00 | 35 | 1023.2 |
| 20260508114735 | 45 | 253 | 2.6 | 7.8 | 0.00 | 0.00 | 0.00 | 33 | 1023.1 |
| 20260508112736 | 46 | 324 | 7.0 | 11.3 | 0.00 | 0.00 | 0.00 | 33 | 1022.9 |
| 20260508110735 | 45 | 321 | 4.3 | 8.7 | 0.00 | 0.00 | 0.00 | 35 | 1022.9 |
| 20260508104735 | 44 | 14 | 4.3 | 8.7 | 0.00 | 0.00 | 0.00 | 36 | 1022.9 |
| 20260508102735 | 44 | 334 | 5.2 | 9.6 | 0.00 | 0.00 | 0.00 | 35 | 1022.7 |
| 20260508100735 | 44 | 32 | 1.7 | 4.3 | 0.00 | 0.00 | 0.00 | 34 | 1022.6 |
| 20260508094735 | 43 | 269 | 7.0 | 9.6 | 0.00 | 0.00 | 0.00 | 39 | 1022.6 |
| 20260508092734 | 44 | 329 | 4.3 | 9.6 | 0.00 | 0.00 | 0.00 | 39 | 1022.4 |
| 20260508090735 | 42 | 275 | 7.0 | 13.0 | 0.00 | 0.00 | 0.00 | 41 | 1022.4 |
| 20260508084734 | 43 | 337 | 2.6 | 6.1 | 0.00 | 0.00 | 0.00 | 40 | 1022.2 |
| 20260508082733 | 42 | 309 | 4.3 | 7.0 | 0.00 | 0.00 | 0.00 | 41 | 1022.2 |
| 20260508080735 | 43 | 356 | 3.5 | 7.0 | 0.00 | 0.00 | 0.00 | 41 | 1022.1 |
| 20260508074734 | 43 | 123 | 2.6 | 5.2 | 0.00 | 0.00 | 0.00 | 45 | 1022.0 |
| 20260508072734 | 43 | 78 | 2.6 | 8.7 | 0.00 | 0.00 | 0.00 | 44 | 1021.9 |
| 20260508070735 | 43 | 64 | 3.5 | 9.6 | 0.00 | 0.00 | 0.00 | 47 | 1021.8 |
| 20260508064734 | 41 | 72 | 5.2 | 7.8 | 0.00 | 0.00 | 0.00 | 50 | 1021.8 |
| 20260508062734 | 41 | 75 | 5.2 | 8.7 | 0.00 | 0.00 | 0.00 | 52 | 1021.8 |
| 20260508060735 | 39 | 51 | 3.5 | 6.1 | 0.00 | 0.00 | 0.00 | 54 | 1021.7 |
| 20260508054735 | 39 | 58 | 3.5 | 5.2 | 0.00 | 0.00 | 0.00 | 56 | 1021.5 |
| 20260508052734 | 37 | 129 | 1.7 | 3.5 | 0.00 | 0.00 | 0.00 | 60 | 1021.4 |
| 20260508050734 | 37 | 326 | 1.7 | 2.6 | 0.00 | 0.00 | 0.00 | 59 | 1021.3 |
| 20260508044734 | 35 | 67 | 1.7 | 3.5 | 0.00 | 0.00 | 0.00 | 62 | 1021.3 |
| 20260508040733 | 35 | 119 | 0.9 | 1.7 | 0.00 | 0.00 | 0.00 | 61 | 1021.1 |
| 20260508034734 | 34 | 323 | 0.9 | 1.7 | 0.00 | 0.00 | 0.00 | 64 | 1021.1 |
| 20260508032734 | 31 | 213 | 0.9 | 1.7 | 0.00 | 0.00 | 0.00 | 71 | 1021.0 |
| 20260508030734 | 29 | 263 | 2.6 | 3.5 | 0.00 | 0.00 | 0.00 | 76 | 1020.9 |
| 20260508024733 | 28 | 260 | 3.5 | 4.3 | 0.00 | 0.00 | 0.00 | 78 | 1020.9 |
| 20260508022732 | 27 | 241 | 1.7 | 3.5 | 0.00 | 0.00 | 0.00 | 80 | 1020.9 |
| 20260508020733 | 26 | 249 | 1.7 | 2.6 | 0.00 | 0.00 | 0.00 | 82 | 1020.7 |
| 20260508014734 | 26 | 250 | 1.7 | 2.6 | 0.00 | 0.00 | 0.00 | 86 | 1020.6 |
| 20260508012733 | 25 | 261 | 1.7 | 1.7 | 0.00 | 0.00 | 0.00 | 87 | 1020.5 |
| 20260508010734 | 25 | 224 | 1.7 | 3.5 | 0.00 | 0.00 | 0.00 | 87 | 1020.2 |
| 20260508004734 | 25 | 225 | 2.6 | 3.5 | 0.00 | 0.00 | 0.00 | 85 | 1019.9 |
| 20260508002733 | 25 | 242 | 2.6 | 3.5 | 0.00 | 0.00 | 0.00 | 86 | 1019.9 |
| 20260508000735 | 26 | 244 | 2.6 | 3.5 | 0.00 | 0.00 | 0.00 | 86 | 1019.7 |
| 20260507234734 | 26 | 189 | 0.9 | 1.7 | 0.00 | 0.00 | 0.00 | 84 | 1019.6 |
| 20260507232733 | 27 | 155 | 1.7 | 2.6 | 0.00 | 0.00 | 0.00 | 77 | 1019.3 |
| 20260507230733 | 27 | 282 | 1.7 | 2.6 | 0.00 | 0.00 | 0.00 | 80 | 1019.2 |
| 20260507224732 | 28 | 232 | 3.5 | 5.2 | 0.00 | 0.00 | 0.00 | 77 | 1019.0 |
| 20260507222733 | 28 | 234 | 2.6 | 3.5 | 0.00 | 0.00 | 0.00 | 76 | 1018.9 |
| 20260507220733 | 28 | 274 | 1.7 | 2.6 | 0.00 | 0.00 | 0.00 | 80 | 1018.7 |
| 20260507214732 | 29 | 81 | 0.9 | 0.9 | 0.00 | 0.00 | 0.00 | 77 | 1018.5 |
| 20260507212732 | 31 | 252 | 1.7 | 2.6 | 0.00 | 0.00 | 0.00 | 71 | 1018.3 |
| 20260507210732 | 29 | 281 | 1.7 | 2.6 | 0.00 | 0.00 | 0.00 | 74 | 1018.2 |
| 20260507204733 | 31 | 102 | 1.7 | 2.6 | 0.00 | 0.00 | 0.00 | 68 | 1018.0 |
| 20260507202732 | 34 | 93 | 2.6 | 3.5 | 0.00 | 0.00 | 0.00 | 59 | 1017.7 |
| 20260507194732 | 37 | 78 | 1.7 | 2.6 | 0.00 | 0.00 | 0.00 | 54 | 1017.1 |
| 20260507192732 | 37 | 21 | 3.5 | 4.3 | 0.00 | 0.00 | 0.00 | 53 | 1016.9 |
| 20260507190731 | 37 | 27 | 5.2 | 7.0 | 0.00 | 0.00 | 0.00 | 53 | 1016.7 |
| 20260507184732 | 39 | 30 | 5.2 | 7.8 | 0.00 | 0.00 | 0.00 | 49 | 1016.5 |
| 20260507182731 | 40 | 22 | 6.1 | 8.7 | 0.00 | 0.00 | 0.00 | 48 | 1016.3 |
| 20260507180730 | 41 | 22 | 7.8 | 11.3 | 0.00 | 0.00 | 0.00 | 46 | 1016.1 |
| 20260507174732 | 41 | 24 | 7.0 | 9.6 | 0.00 | 0.00 | 0.00 | 45 | 1016.0 |
| 20260507172731 | 42 | 21 | 7.8 | 9.6 | 0.00 | 0.00 | 0.00 | 45 | 1015.8 |
| 20260507171053 | 42 | 28 | 8.7 | 11.3 | 0.00 | 0.00 | 0.00 | 44 | 1015.7 |
| 20260507164732 | 42 | 21 | 7.8 | 11.3 | 0.00 | 0.00 | 0.00 | 44 | 1015.5 |
| 20260507162731 | 42 | 24 | 8.7 | 10.4 | 0.00 | 0.00 | 0.00 | 43 | 1015.4 |
| 20260507160732 | 42 | 38 | 7.8 | 10.4 | 0.00 | 0.00 | 0.00 | 43 | 1015.3 |
| 20260507154731 | 43 | 24 | 7.8 | 10.4 | 0.00 | 0.00 | 0.00 | 43 | 1015.1 |
| 20260507152730 | 42 | 30 | 7.8 | 10.4 | 0.00 | 0.00 | 0.00 | 44 | 1015.1 |
| 20260507150732 | 43 | 30 | 8.7 | 11.3 | 0.00 | 0.00 | 0.00 | 43 | 1014.9 |
| 20260507144732 | 43 | 341 | 4.3 | 8.7 | 0.00 | 0.00 | 0.00 | 42 | 1014.9 |
| 20260507140731 | 43 | 9 | 7.8 | 13.9 | 0.00 | 0.00 | 0.00 | 44 | 1014.6 |
| 20260507132730 | 44 | 23 | 6.1 | 9.6 | 0.00 | 0.00 | 0.00 | 44 | 1014.5 |
| 20260507130732 | 42 | 52 | 8.7 | 12.2 | 0.00 | 0.00 | 0.00 | 47 | 1014.5 |
| 20260507124730 | 43 | 17 | 11.3 | 14.8 | 0.00 | 0.00 | 0.00 | 46 | 1014.4 |
| 20260507122730 | 43 | 34 | 6.1 | 8.7 | 0.00 | 0.00 | 0.00 | 41 | 1014.4 |